Starlink 11743

operational
NORAD ID: 64379 Int'l Des: 2025-127 Owner: SPXS Country: US Constellation: starlink
LEOCIRCULAR

Starlink 11743について

説明を読み込み中...

リアルタイム位置

3D地球を読み込み中...

次回通過

高度履歴

Altitude vs Time

uPlot chart will show altitude changes over time

軌道要素

1 64379U 25127K 26062.17433681 .00297522 00000-0 22245-2 0 9999
2 64379 43.0012 124.1688 0001410 192.0090 168.0744 15.71007253 42476
Epoch: Mar 3, 2026 • Age: 25 hours

現在のステータス

高度 355.4 km
速度 7.70 km/s
衛星直下点 -10.21°S, 135.61°E
打ち上げ日 Jun 13, 2025
運用期間 0.7 years
タイプ internet

技術仕様

分類 Payload
質量 960.00 kg
乾燥質量 910.00 kg
総質量 960.00 kg
長さ 0.30 m
直径 4.10 m
スパン 29.00 m
形状 Box + pan
製造者 SPXS
バスタイプ Starlink V2MD
フェーズステータス In Orbit
所有者/国 SPXS/US

大規模コンステレーション

Loading constellations...